OBJECT B, 44880

Orbit data source: Space-Track

You're viewing an Uncataloged Satellite

Recently launched and/or uncataloged satellites may have evolving metadata. Metadata may include but not limited to: Owner, Maufacturer, Bus, Motor, and Mission.

OBJECT B, 44880 is a satellite in SSO that was launched on Fri, 20 Dec 2019 UTC via a CHANG ZHENG 4B launch vehicle from the Taiyaun Space Center, China (TSC). Unknown objects in Earth's orbit typically refer to objects detected orbiting the Earth but have not yet been identified or cataloged. These objects could be anything from previously untracked satellites, spent rocket stages, debris from satellite collisions, or even natural meteoroids temporarily captured by Earth's gravity.

Loading next visibility...
Identifier
44880, 2019-093B
Orbit
SSO
Country
Flag of TBDTBD
Related business
None
Manufacturer
DFH
Mission
Operational Civil Imaging
Bus & Motor
Unknown
Mass
70 kg wet, 70 kg dry
Launch date (UTC)
2019-12-20 (6 years ago)
Launch vehicle
CHANG ZHENG 4B
Launch site
Taiyaun Space Center, China (TSC)
Object type
Unknown
Shape & HBR
Box + 2 Pan, Unknown HBR
Radar Cross Section
0.195 m², Medium (>0.1 m² and < 1m²)

Expand to show TLE details & history
Last TLE update: 15 hours ago

TLE from 15 hours ago
0 OBJECT B
1 44880U 19093B   25261.25497045  .00003542  00000-0  34249-3 0  9997
2 44880  97.8032 342.4530 0010788 235.1901 124.8304 14.93391427311438
Epoch: 2025-09-18T06:07Z
TLE epoch observation values (Epoch: 2025-09-18T06:07:09.446Z)
Latitude
-0.00006°
Longitude
-106.75555°
Altitude
594.711 km
Speed
7.56 km/s
True Right ascension
22h 49m 48s
True Declination
0° 00' 00"
Sunlit
Object was in full shadow at epoch
Visualization orbit readout
Latitude
Unknown
Longitude
Unknown
Altitude
Unknown
Speed
Unknown
Apparent Right ascension
Unknown
Apparent Declination
Unknown
Sunlit
N/A
Visualization observer readout
Local Sidereal Time
13:42:27
Azimuth
Unknown
Elevation
Unknown
Doppler factor
Unknown
Orbital elements
Apogee altitude
591.9 km
Perigee altitude
576.878 km
Semi-major axis
6,962.526 km
Eccentricity
0.00108
Inclination
97.8032°
RAAN
342.453°
Arg. of periapsis
235.1901°
True anomaly
124.9318°
Mean anomaly
124.8304°
Eccentric anomaly
124.88111°
Mean motion
3.73588 °/min
Orbital period
96.36 mins
BSTAR
0.00034249
Loading maneuver chart data...
Computing Atmospheric mass density...
Loading historical data...
Loading historical data...
Loading historical data...
Loading historical data...
Loading historical data...
Loading historical data...
Loading historical data...

Documentation

Showing up to 5 results
|